www.pogodaiklimat.ru

Погода и климат >> Архив погоды >> Россия >> Магаданская область >> Брохово


АРХИВ ПОГОДЫ в Брохово

Время (UTC), дата Ветер
(напр.,м/с)
 
Видим.   Явления Облачность Т
(С)
Тd
(С)
f
(%)
Тe
(С)
Тes
(С)
Комфортность P
(гПа)
Po
(гПа)
Тmin
(С)
Tmax
(С)
R
(мм)
R24
(мм)
S
(см)
03 12.09 В 1 50 км ясно +14.8 -6.1 23 +16 +23 1010.4 1009.8
06 12.09 С 2 50 км 3/0
[Ci fib]
+14.6 -3.1 29 +15 +16 1010.1 1009.4
09 12.09 Ю 8-10
{10}
н/о н/о +9.2 +3.0 65 +5 +5 1010.7 1010.1 +15.9
12 12.09 Ю 5
{10}
10 км дымка 4/0
[Ci fib]
+6.9 +4.0 82 +3 +3 1011.7 1011.0
15 12.09 З 2 50 км 4/0
[Ci fib]
+3.4 +1.1 85 0 0 1011.8 1011.1
18 12.09 З 4 50 км 6/3 1000 м
[Sc Ac trans]
+4.6 +2.9 89 0 0 1011.9 1011.2
21 12.09 З 2 50 км 6/0
[Ac trans]
+4.4 +3.4 93 +2 +2 1012.8 1012.1 +2.8
00 13.09 В 1 50 км 8/0
[Ac trans]
+10.4 +5.5 72 +10 +13 1013.4 1012.8
03 13.09 СВ 4 50 км 3/0
[Ci fib]
+12.7 +6.9 68 +11 +15 1012.5 1011.8
06 13.09 СВ 5 50 км 4/0
[Ci fib]
+11.4 +7.1 75 +9 +10 1012.3 1011.6
09 13.09 С 4 50 км 3/3 1000 м
[Sc]
+8.8 +7.1 89 +6 +6 1012.9 1012.2 +13.1
12 13.09 СВ 4 50 км 10/10 300 м
[St]
+7.6 +6.2 91 +4 +4 1013.4 1012.7
15 13.09 СВ 3 50 км 10/10 600 м
[Sc]
+7.4 +6.2 92 +4 +4 1013.3 1012.6
18 13.09 СВ 3 50 км 10/10 600 м
[Sc]
+7.6 +5.0 84 +5 +5 1012.7 1012.1
21 13.09 СВ 2 50 км 10/10 300 м
[St]
+7.9 +5.6 85 +6 +6 1012.6 1012.0 +7.4
00 14.09 ЮЗ 2 50 км 10/10 300 м
[St]
+8.4 +6.8 90 +6 +6 1012.5 1011.9
03 14.09 СВ 4 50 км 10/10 300 м
[St]
+10.0 +6.7 80 +7 +7 1011.4 1010.7
06 14.09 СВ 6 50 км 10/5 300 м
[St Ac trans Ci fib]
+9.7 +6.9 83 +6 +6 1010.3 1009.7
09 14.09 СВ 5 50 км 10/4 300 м
[St Cs]
+9.7 +6.9 83 +6 +6 1010.3 1009.6 +10.6
12 14.09 Ю 3 50 км 9/1 600 м
[Sc Cs]
+6.0 +4.8 92 +3 +3 1010.1 1009.5
15 14.09 З 2 50 км 10/3 600 м
[Sc As trans]
+6.7 +5.6 93 +4 +4 1008.8 1008.2
18 14.09 В 7
{10}
50 км 10/10 600 м
[Sc]
+9.1 +2.8 65 +5 +5 1008.1 1007.4
21 14.09 В 8-10
{11}
50 км 9/8 600 м
[Cu hum As trans]
+9.4 +4.9 73 +5 +5 1007.8 1007.1 +6.0
00 15.09 СВ 9-11
{12}
50 км 10/8 300 м
[St As trans]
+10.0 +5.7 75 +6 +6 1007.1 1006.4
03 15.09 В 7
{11}
50 км 9/3 300 м
[Cb calv Ac trans]
+10.1 +5.6 74 +7 +7 1006.4 1005.8
06 15.09 В 8-10
{11}
10 км слаб. ливневой дождь 10/10 300 м
[Cb cap]
+9.8 +8.2 90 +6 +6 1005.9 1005.2
09 15.09 В 6
{11}
10 км слаб. ливневой дождь 10/10 300 м
[Cb cap]
+9.8 +7.4 85 +6 +6 1006.7 1006.0 +11.0 2
12 15.09 ЮВ 6
{10}
10 км слаб. ливневой дождь 10/10 300 м
[Cb cap]
+9.8 +7.8 87 +6 +6 1007.6 1006.9
15 15.09 ЮВ 6 50 км {ливн. осадки} 10/10 300 м
[Cb cap]
+9.4 +8.1 92 +6 +6 1008.4 1007.8
18 15.09 ЮВ 5 50 км {ливн. осадки} 9/5 300 м
[Cb cap Ac trans]
+8.6 +5.8 83 +5 +5 1010.0 1009.3
21 15.09 ЮВ 5
{10}
50 км в посл. час ливневой дождь 9/8 300 м
[St Ac trans]
+8.9 +7.0 88 +5 +5 1011.1 1010.5 +7.9 1
00 16.09 ЮВ 7-10
{10}
50 км {ливн. осадки} 9/8 300 м
[St Ac trans]
+11.2 +7.4 77 +8 +8 1011.9 1011.2
03 16.09 В 3
{10}
10 км слаб. ливневой дождь 10/10 300 м
[Cb cap]
+10.6 +6.5 76 +9 +9 1012.0 1011.3
06 16.09 В 4 50 км в посл. час ливневой дождь 10/10 300 м
[Cb cap]
+10.4 +7.9 84 +8 +8 1012.2 1011.5
09 16.09 З 1 50 км 10/10 300 м
[Cb cap]
+9.6 +8.5 93 +9 +9 1013.6 1012.9 +11.6 1
12 16.09 СВ 7-10
{10}
50 км 6/3 600 м
[Sc Ac trans]
+9.9 +7.3 84 +6 +6 1014.9 1014.3
15 16.09 СВ 5
{10}
50 км 10/4 600 м
[Sc Ac trans]
+10.0 +7.4 84 +7 +7 1015.1 1014.5
18 16.09 СВ 5 50 км 10/10 300 м
[St]
+10.0 +7.4 84 +7 +7 1015.0 1014.3
21 16.09 СВ 5 50 км 10/8 300 м
[Cb cap Ac trans]
+10.0 +7.2 83 +7 +7 1014.9 1014.2 +9.6
00 17.09 СВ 4 10 км слаб. ливневой дождь 10/10 300 м
[Cb cap]
+10.0 +7.7 86 +7 +7 1014.3 1013.6
03 17.09 В 4 50 км в посл. час ливневой дождь 9/8 300 м
[Cb cap Ac trans Ci fib]
+10.2 +7.5 83 +8 +8 1013.2 1012.5
06 17.09 В 4 50 км {ливн. осадки} 9/8 300 м
[St Ac trans]
+10.0 +6.8 80 +7 +7 1012.2 1011.5
09 17.09 СВ 5 50 км 8/4 300 м
[St Ac trans]
+9.3 +6.5 83 +6 +6 1011.6 1010.9 +10.6 1
12 17.09 СВ 6 50 км 9/6 300 м
[St Ac trans]
+9.6 +6.7 82 +6 +6 1011.0 1010.3
15 17.09 СВ 7 50 км 9/8 300 м
[St Ac trans]
+9.3 +6.2 81 +5 +5 1010.3 1009.6
18 17.09 СВ 6 50 км 9/8 300 м
[St Ac trans]
+9.4 +6.0 79 +6 +6 1010.0 1009.3
21 17.09 СВ 7 50 км 9/3 300 м
[St Ac trans]
+10.1 +5.5 73 +7 +7 1010.1 1009.5 +9.0
00 18.09 СВ 6 50 км 9/6 600 м
[Cu Sc Ac trans Ci fib]
+10.9 +6.3 73 +8 +8 1010.6 1009.9
03 18.09 СВ 4 50 км 9/5 600 м
[Sc Ac trans Ci fib]
+11.6 +6.7 72 +10 +11 1010.6 1009.9
06 18.09 СВ 3 50 км 10/3 600 м
[Sc As op]
+10.4 +6.1 75 +8 +9 1010.7 1010.0
09 18.09 СЗ 1 50 км 10/0
[As op]
+9.2 +5.7 79 +9 +9 1011.6 1010.9 +12.0
12 18.09 СЗ 3 50 км 10/0
[As op]
+8.3 +6.5 88 +6 +6 1012.0 1011.3
15 18.09 З 5 50 км 10/0
[As op]
+8.1 +5.5 84 +4 +4 1012.0 1011.3
18 18.09 ЮЗ 3 50 км 10/0
[As trans]
+7.2 +5.3 88 +4 +4 1011.7 1011.0
21 18.09 ЮЗ 3 н/о н/о +8.2 +5.6 84 +6 +6 1011.8 1011.1 +7.1
00 19.09 З 1 50 км 9/1 600 м
[Sc Ci fib]
+12.6 +5.9 64 +13 +17 1011.8 1011.1

 

Местоположение метеостанции Брохово (Магаданская область, Россия): широта 59.65 долгота 154.20 высота над уровнем моря 5 м.

В архиве по умолчанию представлена погода в Брохово за последнюю неделю. Архивные данные за месяц целиком и за предыдущие месяцы, начиная с января 2011 года, Вы можете получить, выбрав интересующий диапазон дат из раскрывающегося списка и нажав кнопку "Ввод!".


*Определитесь, кто Вы:
робот инопланетянин человек

Внимание! Время в таблицах - всемирное. Для получения местного времени необходимо прибавить поправку, которая равна 11 ч.

Смотрите также архив погоды в соседних городах и на ближайших метеорологических станциях:

Погода на Мысе Братьев (Магаданская область, Россия) (80 км)
Погода на Шелихова (Магаданская область, Россия) (148 км)
Погода в Оле (Магаданская область, Россия) (169 км)
Погода на Мысе Алевина (Магаданская область, Россия) (188 км)
Погода в Палатке (Магаданская область, Россия) (191 км)
Погода в Талой (Магаданская область, Россия) (195 км)
Погода в Нагаева (Магаданская область, Россия) (196 км)
Погода в Магадане (Магаданская область, Россия) (197 км)
Погода в Мадауне (Магаданская область, Россия) (221 км)
Погода в Армани (Магаданская область, Россия) (230 км)

Пояснения к столбцам:

Ветер - указаны скорость ветра в м/с - средняя за 10 мин, порывы в срок и между сроками (в фигурных скобках) и направление, откуда дует ветер: С - северный, СВ - северо-восточный, В - восточный, ЮВ - юго-восточный, Ю - южный, ЮЗ - юго-западный, З - западный, СЗ - северо-западный.
Видимость - горизонтальная дальность видимости в метрах или километрах. При видимости от 1 до 10 км при отсутствии осадков обычно наблюдается дымка, при ухудшении видимости до 1 км и менее - туман. В сухую погоду видимость может ухудшаться дымом, пылью или мглою.
Явления - указаны атмосферные явления, наблюдавшиеся в срок или в последний час перед сроком; фигурными скобками обозначены явления, наблюдавшиеся между сроками (за 1-3 часа до срока); квадратными скобками обозначены град или гололедные отложения с указанием их диаметра в мм.
Облачность - указаны через наклонную черту общая и нижняя облачность в баллах и высота нижней границы облаков в метрах; квадратными скобками обозначены формы облаков: Ci - перистые, Cs - перисто-слоистые, Cc - перисто-кучевые, Ac - высококучевые, As - высокослоистые, Sc - слоисто-кучевые, Ns - слоисто-дождевые, Cu - кучевые, Cb - кучево-дождевые. Подробнее классификацию облаков см. в Атласе облаков (PDF).
T - Температура воздуха - температура, измеренная на высоте 2 м над землей.
Td - Температура точки росы - температура, при понижении до которой содержащийся в воздухе водяной пар достигнет насыщения.
f - Относительная влажность воздуха - влажноcть воздуха, измеренная на высоте 2 м над землей.
Te - Эффективная температура - температура, которую ощущает одетый по сезону человек в тени. Характеристика душности погоды. При расчете учитывается влияние влажности воздуха и скорости ветра на теплоощущения человека.
Tes - Эффективная температура на солнце - температура, которую ощущает человек, с поправкой на солнечный нагрев. Характеристика знойности погоды. Зависит от высоты солнца над горизонтом, облачности и скорости ветра. Ночью, в пасмурную погоду, а также при ветре 12 м/с и более поправка равна нулю.
P - Атмосферное давление - приведенное к уровню моря атмосферное давление.
Po - Атмосферное давление - измеренное на уровне метеостанции атмосферное давление.
Tmin - Минимальная температура - минимум температуры воздуха на высоте 2 м над землей.
Tmax - Максимальная температура - максимум температуры воздуха на высоте 2 м над землей.
R - Количество осадков - Количество выпавших осадков за период времени, мм. При наведении курсора мыши на число - период времени, за который выпало указанное количество осадков.
R24 - Количество осадков - Количество выпавших осадков за 24 часа, мм.
S - Снежный покров - Высота снежного покрова, см. При наведении курсора мыши на число - состояние снежного покрова и степень покрытия местности в баллах.